Wind_Speed
8 7 8 9 7 6 7 8 9 10 9 9 10 11 12 15 20 19 16 13 11 12 10 12 13 10 8 9 11 13 14 18 19 21 21 21 22 22 21 21 21 22 22
9 9 12 11 10 8 8 7 8 9 11 12 11 13 17 21 18 16 13 12 13 12 8 9 8 5 4 9 12 14 17 20 20 17 18 23 25 22 20 20 23 25 25
13 13 12 11 8 7 6 8 9 11 12 13 15 17 17 14 16 18 17 16 16 14 7 8 8 8 9 8 8 9 9 9 12 13 13 16 22 25 28 30 32 32 30
16 12 10 9 7 5 6 9 11 12 14 17 18 16 15 11 11 14 15 14 12 7 6 7 7 10 9 11 8 8 8 10 12 10 11 18 22 28 32 36 38 38 35
12 12 8 6 5 5 8 12 13 17 18 17 16 14 11 10 14 15 15 13 8 5 7 8 8 10 12 14 13 9 11 12 14 11 13 19 25 28 31 30 26 23 27
11 9 8 5 5 8 12 15 18 19 19 18 15 12 11 14 14 14 14 9 7 5 6 8 11 13 12 12 13 10 11 14 15 13 15 15 17 18 23 23 21 22 24
10 10 6 6 9 13 18 22 24 22 20 19 16 14 14 8 7 10 10 13 13 13 13 15 15 14 14 15 13 13 12 14 14 17 17 17 18 18 19 21 23 24 25
12 8 7 9 12 17 21 25 24 22 21 18 15 14 1 8 18 9 12 14 16 15 17 20 19 19 17 15 15 14 14 15 15 17 17 19 19 20 23 24 25 26 27
12 10 11 12 14 19 24 25 23 20 18 17 14 10 5 4 8 16 10 15 10 16 16 18 20 20 19 17 18 19 20 23 21 19 20 22 23 24 25 27 28 27 28
13 13 14 15 18 22 23 22 20 19 16 14 13 12 10 11 10 9 12 15 19 14 16 16 16 17 17 20 21 25 28 23 19 19 21 21 23 25 26 27 30 30 29
16 17 16 16 19 22 21 19 17 15 12 12 13 14 15 17 17 16 17 12 14 17 18 15 14 17 18 21 24 27 30 28 20 23 22 20 23 26 29 31 34 34 33
19 18 15 15 19 19 25 18 15 14 14 15 18 15 13 13 13 15 17 18 19 20 19 18 16 21 23 23 25 27 26 27 26 25 26 30 31 32 35 35 35 35 34
19 14 13 14 19 23 16 15 14 15 15 16 14 13 13 13 15 16 19 20 21 19 18 17 19 22 23 26 27 24 26 27 30 35 38 38 40 41 37 32 29 28 29
16 14 17 24 14 14 15 14 14 13 13 14 15 16 17 16 16 17 19 21 20 22 24 20 21 23 25 29 33 32 34 36 37 38 38 37 32 26 27 27 26 26 28
15 19 18 13 11 13 15 14 11 10 12 15 17 19 20 17 16 19 20 20 23 21 25 24 23 27 29 33 34 32 31 32 32 32 30 26 23 24 25 25 25 25 26
22 16 14 10 11 12 15 15 14 12 13 16 20 18 18 16 15 17 18 19 21 23 26 29 29 29 33 31 29 29 29 28 26 24 25 26 23 23 25 25 25 26 26
12 9 11 10 10 14 17 16 13 13 16 17 20 18 16 14 17 19 20 20 22 22 25 30 32 32 30 31 30 28 27 26 25 25 26 24 25 24 25 24 26 26 27
14 11 9 10 12 15 18 15 13 14 17 18 17 18 18 17 18 18 19 21 23 21 25 31 31 31 31 30 29 28 25 23 22 24 27 29 30 29 26 24 25 27 28
15 13 9 8 11 17 16 16 15 16 17 20 17 19 19 18 21 21 22 23 23 25 25 26 30 31 31 29 30 29 26 26 26 28 24 20 21 24 26 26 27 26 27
16 13 8 7 16 15 17 16 17 18 19 20 18 19 20 21 20 22 23 24 24 24 24 25 29 30 30 29 29 30 33 33 32 21 15 19 22 22 23 25 25 24 26
16 11 5 13 16 18 18 19 20 19 19 21 19 20 22 21 22 23 23 24 23 23 23 26 27 29 29 29 28 31 30 28 23 18 22 22 23 22 21 17 21 22 22
13 5 11 21 21 22 20 19 19 19 19 21 19 21 21 22 22 23 24 24 21 21 23 25 27 28 28 26 28 26 26 24 28 23 29 28 24 22 18 19 17 20 19
11 9 24 17 22 23 21 20 20 18 20 21 21 21 23 22 22 23 24 22 20 21 22 25 26 24 25 23 26 26 21 23 25 28 26 28 22 22 21 17 16 19 18
15 24 16 20 23 24 23 21 20 19 20 21 22 23 23 22 21 23 21 20 20 21 22 23 21 20 19 22 22 22 22 25 29 28 22 28 26 27 23 16 11 9 8
29 16 19 23 25 25 22 19 17 17 19 21 21 22 23 22 19 21 20 20 21 21 22 18 16 17 17 17 20 22 23 24 30 29 23 22 30 31 27 16 8 11 12
13 19 23 23 24 24 21 19 17 19 21 21 22 24 23 20 20 20 20 19 21 19 17 16 15 15 15 17 20 18 19 22 24 28 22 29 30 29 22 18 9 17 16
Wind_Direction
178 186 191 205 215 237 241 252 270 288 301 306 308 297 297 301 304 292 293 301 305 301 296 304 313 311 298 293 302 307 313 314 317 323 316 313 312 305 305 307 309 305 299
208 213 222 227 241 251 263 272 278 288 300 311 310 310 308 307 303 294 290 298 306 313 302 290 275 277 312 308 315 318 316 317 321 326 315 316 314 311 307 310 314 312 301
225 232 243 238 237 244 265 277 294 304 306 305 308 307 309 309 295 294 297 300 298 297 277 259 259 277 293 318 344 344 345 3 336 328 330 318 318 319 316 310 309 309 306
233 230 217 213 220 252 286 305 300 305 309 317 323 328 332 322 306 307 317 321 325 277 233 227 250 273 279 294 311 310 312 326 328 328 319 315 318 318 316 314 311 307 302
203 203 203 221 245 299 309 301 311 318 323 325 328 334 334 311 308 306 310 313 322 264 209 229 251 278 300 314 313 308 309 310 315 297 291 306 308 311 313 313 316 322 310
198 205 219 239 300 310 316 318 322 322 322 326 329 329 323 313 298 295 302 308 305 291 275 274 273 286 292 291 296 313 310 305 305 300 314 316 316 312 308 307 318 319 319
212 221 243 288 318 325 325 320 317 316 317 321 323 320 325 290 275 295 293 304 308 304 300 301 300 300 299 302 303 301 311 309 299 297 298 304 311 309 311 310 311 311 311
221 236 269 296 313 315 314 313 312 315 316 317 320 325 304 271 270 259 291 300 301 298 309 309 310 310 307 304 310 311 307 306 299 292 291 298 303 304 306 306 306 305 306
230 249 266 281 298 307 312 313 313 314 314 315 316 315 308 261 269 280 256 287 265 286 291 297 302 306 309 312 313 311 308 306 299 291 291 293 296 299 301 301 301 302 303
243 262 274 288 301 308 310 308 310 310 308 310 313 309 300 287 294 287 283 269 281 281 292 293 289 297 303 310 313 318 317 309 285 288 292 293 294 297 299 300 299 300 298
249 254 268 290 305 314 308 304 304 306 307 308 307 300 294 296 295 283 289 288 267 294 299 299 294 298 300 302 303 310 314 310 294 283 278 289 293 295 297 297 296 296 294
247 258 273 297 312 312 303 305 310 310 308 307 309 305 302 300 297 289 288 291 290 293 292 291 296 302 296 303 309 314 307 301 294 289 288 290 293 295 295 294 294 293 292
245 257 287 300 290 294 295 300 304 303 307 314 316 315 312 305 299 297 288 288 289 287 287 292 297 299 299 310 312 304 295 290 287 288 291 292 291 292 293 293 293 291 290
243 264 287 305 292 294 302 303 304 301 306 311 312 316 315 305 298 299 292 290 286 291 294 298 302 303 307 307 305 302 296 292 291 290 290 293 295 296 294 291 290 286 284
246 286 296 294 293 311 314 308 308 299 311 320 310 312 311 301 293 302 297 287 290 295 297 304 307 307 305 306 308 307 305 302 300 299 298 297 294 289 291 288 284 284 282
271 275 285 281 301 313 321 309 301 305 314 321 319 305 307 304 286 293 295 294 293 295 300 307 308 310 311 312 313 312 309 307 305 302 299 301 298 285 282 282 281 281 281
250 260 269 287 311 324 329 314 308 305 319 323 321 313 314 310 302 298 296 296 296 297 295 299 305 310 312 314 315 314 311 308 306 303 304 300 296 295 290 283 280 283 288
252 250 274 301 320 319 318 312 310 310 307 315 318 315 306 302 301 286 288 292 297 291 296 302 308 313 314 316 317 317 316 311 312 308 306 302 295 289 286 282 278 280 286
247 246 266 290 312 303 308 303 307 315 302 304 311 304 292 295 300 300 300 299 297 301 303 305 309 313 315 319 321 322 321 316 315 318 316 312 312 303 282 271 273 279 286
239 242 255 285 301 297 296 297 298 304 302 293 298 301 291 299 303 303 301 301 303 303 304 305 308 311 316 321 322 324 322 322 320 325 327 326 328 321 310 279 274 281 284
231 234 258 306 290 288 288 291 291 293 289 284 286 297 292 294 300 304 303 304 302 301 304 308 309 312 316 321 323 323 322 325 327 331 337 331 331 326 324 299 275 280 283
195 212 292 296 283 289 286 285 281 284 281 277 282 299 291 291 297 301 301 303 298 300 305 307 311 312 316 321 321 321 322 325 326 330 329 330 335 323 325 318 300 285 279
216 267 295 280 282 291 287 287 287 282 274 270 287 292 289 287 296 300 300 297 294 297 302 306 309 313 314 321 318 317 323 320 313 319 325 322 340 334 331 326 315 292 276
316 287 281 282 290 288 288 286 285 282 264 275 284 288 283 288 296 301 294 289 290 295 300 303 305 313 314 323 321 314 308 303 303 310 326 316 334 336 336 329 327 345 285
283 272 282 291 290 290 289 284 279 272 274 280 281 285 283 288 295 301 290 288 290 298 302 301 305 313 314 316 324 308 304 307 309 314 323 324 324 327 330 327 279 331 313
269 286 290 290 293 293 287 277 275 273 275 280 285 283 282 282 290 297 289 285 290 303 301 302 302 306 311 320 326 318 306 302 306 312 317 322 321 323 314 320 271 309 312
Height
1566 1567 1568 1567 1569 1570 1570 1570 1570 1571 1570 1568 1566 1565 1564 1563 1562 1561 1558 1557 1556 1556 1556 1555 1554 1552 1551 1551 1551 1549 1549 1547 1547 1545 1543 1544 1544 1543 1543 1540 1539 1539 1538
1565 1565 1568 1566 1568 1570 1569 1569 1569 1569 1569 1568 1566 1563 1561 1559 1558 1557 1556 1555 1554 1555 1554 1553 1552 1551 1550 1549 1550 1549 1547 1546 1544 1544 1543 1541 1540 1541 1539 1538 1536 1536 1535
1564 1564 1566 1566 1567 1568 1568 1569 1568 1567 1567 1566 1563 1561 1558 1557 1556 1555 1552 1552 1552 1551 1551 1550 1550 1550 1550 1549 1548 1548 1546 1545 1544 1543 1542 1539 1538 1535 1534 1533 1533 1532 1532
1563 1563 1565 1566 1566 1566 1568 1568 1568 1565 1563 1560 1559 1558 1556 1555 1554 1552 1549 1549 1550 1548 1548 1549 1549 1548 1548 1548 1546 1546 1545 1544 1543 1542 1540 1537 1535 1532 1530 1528 1527 1526 1525
1562 1564 1564 1565 1565 1564 1564 1566 1564 1561 1558 1558 1557 1555 1554 1554 1553 1550 1549 1548 1548 1547 1547 1547 1547 1546 1546 1544 1543 1542 1542 1541 1540 1538 1537 1534 1532 1530 1528 1524 1523 1521 1519
1562 1563 1564 1565 1562 1561 1562 1562 1560 1557 1555 1555 1554 1554 1553 1552 1551 1549 1548 1547 1548 1548 1547 1546 1546 1545 1543 1541 1540 1539 1539 1538 1537 1534 1533 1531 1529 1526 1524 1522 1520 1518 1516
1562 1562 1563 1561 1559 1559 1558 1557 1556 1555 1553 1552 1552 1552 1551 1549 1549 1548 1547 1547 1546 1546 1546 1544 1542 1541 1539 1538 1536 1535 1535 1535 1533 1532 1530 1528 1525 1523 1521 1519 1517 1515 1512
1561 1561 1560 1558 1557 1556 1556 1555 1554 1553 1552 1551 1550 1548 1548 1549 1547 1545 1544 1544 1544 1543 1542 1541 1539 1538 1536 1534 1533 1531 1530 1530 1529 1527 1526 1524 1521 1519 1517 1515 1513 1510 1507
1558 1558 1557 1556 1554 1554 1554 1554 1553 1551 1550 1549 1549 1549 1546 1545 1545 1544 1541 1540 1540 1541 1540 1538 1536 1534 1533 1531 1529 1528 1525 1524 1523 1522 1521 1519 1517 1515 1512 1510 1507 1504 1502
1555 1555 1554 1553 1552 1552 1552 1552 1551 1550 1548 1547 1547 1547 1546 1545 1544 1541 1541 1539 1538 1537 1535 1535 1534 1532 1530 1528 1526 1523 1521 1519 1517 1516 1515 1513 1511 1509 1506 1503 1501 1497 1495
1552 1550 1550 1551 1551 1552 1552 1549 1548 1547 1546 1545 1544 1543 1542 1541 1539 1537 1534 1535 1535 1534 1532 1531 1530 1528 1526 1523 1523 1519 1516 1513 1511 1510 1508 1506 1504 1502 1499 1497 1493 1489 1487
1549 1549 1549 1548 1549 1549 1550 1547 1545 1544 1543 1541 1541 1539 1538 1538 1537 1535 1532 1531 1529 1529 1528 1527 1526 1524 1520 1518 1517 1514 1512 1508 1505 1502 1501 1499 1496 1493 1491 1489 1485 1480 1477
1545 1545 1547 1547 1546 1549 1545 1544 1542 1540 1540 1539 1538 1537 1535 1534 1533 1531 1530 1527 1525 1524 1523 1521 1521 1519 1515 1513 1510 1508 1506 1503 1499 1496 1493 1489 1486 1483 1481 1478 1475 1473 1471
1542 1543 1542 1545 1544 1543 1541 1541 1539 1537 1537 1536 1535 1533 1532 1530 1529 1528 1526 1524 1522 1520 1520 1517 1516 1513 1510 1507 1503 1500 1497 1494 1490 1486 1483 1479 1476 1474 1472 1470 1468 1466 1464
1539 1539 1540 1540 1540 1539 1537 1536 1534 1534 1533 1533 1531 1529 1527 1525 1524 1522 1521 1520 1518 1514 1511 1511 1510 1508 1503 1499 1494 1490 1488 1483 1480 1476 1473 1470 1469 1468 1465 1463 1461 1459 1456
1532 1533 1535 1536 1536 1535 1533 1532 1530 1529 1529 1528 1526 1524 1522 1521 1520 1519 1518 1516 1514 1512 1506 1504 1503 1501 1496 1491 1487 1483 1479 1476 1473 1469 1466 1463 1461 1460 1458 1455 1453 1451 1449
1528 1530 1531 1532 1531 1531 1530 1529 1528 1526 1525 1524 1521 1520 1519 1518 1516 1515 1514 1512 1510 1507 1503 1499 1496 1493 1489 1485 1482 1477 1473 1469 1466 1463 1460 1457 1454 1451 1449 1447 1445 1443 1440
1525 1526 1527 1527 1527 1526 1525 1524 1523 1522 1521 1520 1517 1515 1514 1514 1512 1511 1509 1507 1504 1502 1499 1493 1490 1487 1484 1480 1475 1470 1467 1463 1460 1457 1453 1450 1446 1443 1441 1439 1437 1435 1433
1520 1521 1522 1523 1522 1521 1520 1519 1518 1517 1515 1515 1513 1511 1510 1509 1507 1505 1504 1502 1499 1496 1493 1488 1484 1482 1477 1474 1468 1464 1460 1457 1454 1450 1446 1442 1439 1435 1432 1430 1428 1427 1425
1516 1517 1517 1518 1519 1517 1516 1513 1511 1511 1510 1509 1508 1507 1506 1504 1503 1501 1499 1497 1494 1490 1488 1484 1480 1476 1472 1468 1463 1458 1453 1450 1446 1443 1441 1438 1434 1430 1425 1422 1421 1420 1418
1514 1515 1516 1515 1513 1512 1510 1509 1507 1505 1505 1504 1503 1502 1501 1499 1497 1496 1493 1491 1488 1485 1482 1479 1476 1471 1466 1462 1458 1454 1450 1445 1442 1440 1436 1433 1429 1425 1421 1417 1415 1414 1412
1510 1512 1511 1510 1508 1507 1506 1504 1501 1500 1499 1498 1498 1497 1495 1494 1492 1490 1487 1485 1483 1480 1477 1474 1471 1466 1461 1458 1454 1450 1447 1443 1438 1436 1432 1427 1425 1419 1416 1413 1410 1408 1406
1504 1505 1504 1503 1502 1501 1500 1498 1495 1493 1493 1493 1492 1491 1489 1488 1486 1484 1481 1479 1477 1476 1473 1469 1465 1462 1457 1454 1450 1446 1444 1441 1437 1433 1430 1423 1421 1416 1413 1409 1406 1402 1400
1499 1499 1498 1497 1496 1495 1493 1492 1490 1488 1487 1487 1486 1485 1483 1482 1480 1478 1475 1474 1472 1471 1468 1465 1461 1457 1454 1450 1447 1444 1441 1437 1433 1430 1428 1420 1417 1412 1408 1405 1402 1399 1397
1496 1494 1493 1492 1490 1488 1487 1485 1484 1483 1482 1481 1480 1478 1477 1476 1475 1472 1470 1468 1467 1465 1462 1460 1457 1454 1451 1448 1445 1440 1437 1433 1427 1423 1423 1419 1413 1408 1405 1401 1400 1398 1395
1490 1489 1487 1486 1483 1481 1480 1479 1478 1477 1476 1475 1474 1472 1471 1470 1469 1467 1464 1462 1461 1460 1457 1455 1453 1451 1448 1445 1442 1438 1433 1430 1426 1420 1419 1416 1410 1407 1400 1397 1396 1396 1392